AIC255 VEPT-VECC

Flight info

Callsign AIC255
Flight time 0h 48m
Altitude 33000
Route PPT DCT TEPAL TEPAL2G
Aircraft B742/H-SDFHIRWXY/L

Departure

Time 2026-05-08 11:55
Airport Jay Prakash Narayan Airport (VEPT)

Arrival

Time 2026-05-08 12:43
Airport Netaji Subhash Chandra Bose International Airport (VECC)
Time Latitude Longitude Altitude Speed Heading
2026-05-08 11:42 25.59331 85.09064 186 ft 0 kts 297°
2026-05-08 11:49 25.59333 85.09060 186 ft 1 kts 291°
2026-05-08 11:49 25.59326 85.09032 186 ft 6 kts 220°
2026-05-08 11:49 25.59264 85.09041 184 ft 13 kts 158°
2026-05-08 11:50 25.59206 85.09051 184 ft 5 kts 211°
2026-05-08 11:50 25.59183 85.09027 184 ft 3 kts 232°
2026-05-08 11:50 25.59166 85.08998 184 ft 5 kts 246°
2026-05-08 11:50 25.59142 85.08927 184 ft 14 kts 249°
2026-05-08 11:51 25.59094 85.08791 184 ft 23 kts 247°
2026-05-08 11:51 25.59031 85.08615 185 ft 22 kts 249°
2026-05-08 11:51 25.58981 85.08474 188 ft 17 kts 248°
2026-05-08 11:51 25.58938 85.08353 191 ft 17 kts 248°
2026-05-08 11:52 25.58888 85.08215 191 ft 19 kts 249°
2026-05-08 11:52 25.58840 85.08089 192 ft 15 kts 248°
2026-05-08 11:52 25.58806 85.07989 194 ft 12 kts 248°
2026-05-08 11:52 25.58778 85.07935 194 ft 2 kts 242°
2026-05-08 11:53 25.58800 85.07935 194 ft 8 kts 81°
2026-05-08 11:53 25.58809 85.07998 194 ft 8 kts 69°
2026-05-08 11:53 25.58818 85.08025 194 ft 0 kts 71°
2026-05-08 11:54 25.58819 85.08031 194 ft 3 kts 69°
2026-05-08 11:54 25.58869 85.08172 191 ft 47 kts 70°
2026-05-08 11:54 25.59097 85.08802 185 ft 125 kts 68°
2026-05-08 11:55 25.59479 85.09870 467 ft 158 kts 75°
2026-05-08 11:55 25.59920 85.10970 1097 ft 166 kts 72°
2026-05-08 11:55 25.60699 85.11966 1684 ft 190 kts 33°
2026-05-08 11:55 25.62146 85.12130 1967 ft 235 kts 348°
2026-05-08 11:56 25.63603 85.11238 2326 ft 250 kts 314°
2026-05-08 11:56 25.64498 85.09553 2723 ft 260 kts 283°
2026-05-08 11:56 25.65187 85.07666 3138 ft 273 kts 284°
2026-05-08 11:56 25.65147 85.05646 3770 ft 261 kts 242°
2026-05-08 11:57 25.63972 85.04206 4277 ft 256 kts 202°
2026-05-08 11:57 25.62288 85.03800 5018 ft 252 kts 174°
2026-05-08 11:57 25.60704 85.04452 5893 ft 245 kts 143°
2026-05-08 11:57 25.59576 85.05864 6567 ft 254 kts 124°
2026-05-08 11:58 25.58572 85.07455 7547 ft 250 kts 130°
2026-05-08 11:58 25.57307 85.08819 8263 ft 259 kts 140°
2026-05-08 11:58 25.55871 85.10036 8913 ft 269 kts 146°
2026-05-08 11:59 25.52899 85.12301 10906 ft 267 kts 143°
2026-05-08 11:59 25.51293 85.13595 11074 ft 299 kts 144°
2026-05-08 11:59 25.49521 85.14999 11237 ft 328 kts 144°
2026-05-08 11:59 25.47595 85.16505 11398 ft 354 kts 144°
2026-05-08 12:00 25.45508 85.18126 11741 ft 371 kts 144°
2026-05-08 12:00 25.43401 85.19760 12595 ft 375 kts 145°
2026-05-08 12:00 25.41265 85.21413 13446 ft 378 kts 144°
2026-05-08 12:00 25.39112 85.23080 14294 ft 381 kts 144°
2026-05-08 12:01 25.36941 85.24762 15138 ft 384 kts 144°
2026-05-08 12:01 25.34737 85.26469 15742 ft 392 kts 144°
2026-05-08 12:01 25.32488 85.28208 16656 ft 391 kts 144°
2026-05-08 12:01 25.30272 85.29923 17172 ft 400 kts 145°
2026-05-08 12:02 25.27983 85.31693 17879 ft 404 kts 144°
2026-05-08 12:02 25.25670 85.33479 18475 ft 411 kts 144°
2026-05-08 12:02 25.23476 85.35172 19067 ft 418 kts 143°
2026-05-08 12:02 25.21132 85.36980 19908 ft 419 kts 143°
2026-05-08 12:03 25.18709 85.38852 20524 ft 426 kts 143°
2026-05-08 12:03 25.16284 85.40725 21296 ft 429 kts 143°
2026-05-08 12:03 25.13847 85.42606 22110 ft 431 kts 144°
2026-05-08 12:03 25.11413 85.44484 22839 ft 435 kts 144°
2026-05-08 12:04 25.08886 85.46435 22782 ft 458 kts 147°
2026-05-08 12:04 25.06231 85.48477 23224 ft 468 kts 147°
2026-05-08 12:04 25.03558 85.50529 23840 ft 475 kts 147°
2026-05-08 12:04 25.00873 85.52589 24485 ft 480 kts 147°
2026-05-08 12:05 24.98102 85.54717 25139 ft 485 kts 147°
2026-05-08 12:05 24.95310 85.56860 25799 ft 490 kts 147°
2026-05-08 12:05 24.92542 85.58984 26470 ft 495 kts 147°
2026-05-08 12:05 24.89704 85.61163 27160 ft 500 kts 147°
2026-05-08 12:06 24.86836 85.63363 27808 ft 505 kts 147°
2026-05-08 12:06 24.83993 85.65543 28383 ft 509 kts 147°
2026-05-08 12:06 24.81089 85.67750 28920 ft 513 kts 147°
2026-05-08 12:06 24.78150 85.69974 29417 ft 517 kts 147°
2026-05-08 12:07 24.75173 85.72232 30131 ft 514 kts 147°
2026-05-08 12:07 24.72273 85.74438 30820 ft 512 kts 147°
2026-05-08 12:07 24.69356 85.76661 31385 ft 511 kts 147°
2026-05-08 12:07 24.66435 85.78890 31870 ft 512 kts 147°
2026-05-08 12:08 24.63506 85.81124 32247 ft 514 kts 147°
2026-05-08 12:08 24.60639 85.83314 32585 ft 497 kts 147°
2026-05-08 12:08 24.57824 85.85463 32745 ft 501 kts 147°
2026-05-08 12:08 24.54914 85.87680 32782 ft 511 kts 147°
2026-05-08 12:09 24.49080 85.92120 32784 ft 513 kts 147°
2026-05-08 12:09 24.43319 85.96505 32784 ft 504 kts 147°
2026-05-08 12:10 24.37558 86.00879 32787 ft 510 kts 147°
2026-05-08 12:10 24.31728 86.05300 32785 ft 508 kts 147°
2026-05-08 12:11 24.25963 86.09669 32826 ft 507 kts 147°
2026-05-08 12:11 24.20198 86.14032 32889 ft 508 kts 147°
2026-05-08 12:12 24.14369 86.18439 32947 ft 507 kts 147°
2026-05-08 12:12 24.08601 86.22795 32944 ft 507 kts 147°
2026-05-08 12:13 24.02919 86.27081 32929 ft 507 kts 147°
2026-05-08 12:13 23.97066 86.31492 32912 ft 507 kts 147°
2026-05-08 12:14 23.91353 86.35791 32897 ft 507 kts 147°
2026-05-08 12:14 23.85602 86.40115 32880 ft 507 kts 147°
2026-05-08 12:15 23.79509 86.43951 32875 ft 504 kts 156°
2026-05-08 12:15 23.73119 86.46928 32874 ft 503 kts 160°
2026-05-08 12:16 23.66606 86.49655 32874 ft 503 kts 161°
2026-05-08 12:16 23.60079 86.52370 32874 ft 503 kts 161°
2026-05-08 12:17 23.53585 86.55145 32871 ft 504 kts 157°
2026-05-08 12:17 23.47990 86.59478 32875 ft 510 kts 135°
2026-05-08 12:18 23.43933 86.65329 32875 ft 513 kts 124°
2026-05-08 12:19 23.36644 86.78591 32874 ft 513 kts 122°
2026-05-08 12:19 23.33011 86.85175 32872 ft 513 kts 122°
2026-05-08 12:20 23.29318 86.91800 32437 ft 519 kts 122°
2026-05-08 12:20 23.27446 86.95152 31951 ft 515 kts 122°
2026-05-08 12:20 23.25614 86.98431 31472 ft 510 kts 122°
2026-05-08 12:21 23.23783 87.01704 30988 ft 505 kts 123°
2026-05-08 12:21 23.21972 87.04940 30506 ft 501 kts 123°
2026-05-08 12:21 23.20190 87.08123 30078 ft 495 kts 123°
2026-05-08 12:21 23.18400 87.11317 29643 ft 489 kts 123°
2026-05-08 12:22 23.16653 87.14433 29213 ft 485 kts 123°
2026-05-08 12:22 23.14904 87.17551 28779 ft 481 kts 123°
2026-05-08 12:22 23.13183 87.20615 28348 ft 476 kts 123°
2026-05-08 12:22 23.11477 87.23653 27916 ft 470 kts 123°
2026-05-08 12:23 23.09772 87.26685 27480 ft 465 kts 123°
2026-05-08 12:23 23.08119 87.29624 27053 ft 460 kts 123°
2026-05-08 12:23 23.06452 87.32587 26618 ft 455 kts 123°
2026-05-08 12:23 23.04810 87.35484 26187 ft 450 kts 123°
2026-05-08 12:24 23.03165 87.38293 25782 ft 444 kts 124°
2026-05-08 12:24 23.01487 87.41084 25309 ft 439 kts 124°
2026-05-08 12:24 22.99811 87.43823 24809 ft 434 kts 125°
2026-05-08 12:24 22.98152 87.46510 24311 ft 429 kts 125°
2026-05-08 12:25 22.96512 87.49155 23814 ft 424 kts 125°
2026-05-08 12:25 22.94866 87.51804 23310 ft 419 kts 124°
2026-05-08 12:25 22.93272 87.54369 22816 ft 415 kts 124°
2026-05-08 12:25 22.91655 87.56969 22311 ft 411 kts 124°
2026-05-08 12:26 22.90070 87.59518 21838 ft 407 kts 124°
2026-05-08 12:26 22.88514 87.62020 21459 ft 404 kts 124°
2026-05-08 12:26 22.86947 87.64537 21032 ft 403 kts 124°
2026-05-08 12:26 22.85386 87.67033 20606 ft 400 kts 125°
2026-05-08 12:27 22.83857 87.69504 20144 ft 393 kts 124°
2026-05-08 12:27 22.82399 87.71960 19635 ft 385 kts 123°
2026-05-08 12:27 22.81002 87.74397 19122 ft 378 kts 122°
2026-05-08 12:27 22.79665 87.76771 18615 ft 371 kts 122°
2026-05-08 12:28 22.78335 87.79153 18097 ft 364 kts 122°
2026-05-08 12:28 22.77045 87.81464 17586 ft 358 kts 122°
2026-05-08 12:28 22.75767 87.83752 17074 ft 355 kts 122°
2026-05-08 12:28 22.74488 87.86041 16556 ft 352 kts 122°
2026-05-08 12:29 22.73251 87.88251 16058 ft 349 kts 122°
2026-05-08 12:29 22.72003 87.90478 15559 ft 347 kts 122°
2026-05-08 12:29 22.70773 87.92673 15064 ft 344 kts 122°
2026-05-08 12:29 22.69539 87.94875 14563 ft 342 kts 122°
2026-05-08 12:30 22.68316 87.97054 14064 ft 339 kts 122°
2026-05-08 12:30 22.67091 87.99232 13560 ft 337 kts 122°
2026-05-08 12:30 22.65873 88.01360 13063 ft 334 kts 122°
2026-05-08 12:30 22.64643 88.03476 12544 ft 323 kts 123°
2026-05-08 12:31 22.63473 88.05472 12034 ft 310 kts 123°
2026-05-08 12:31 22.62333 88.07412 11525 ft 305 kts 123°
2026-05-08 12:31 22.61205 88.09328 11011 ft 300 kts 123°
2026-05-08 12:31 22.60239 88.10970 10566 ft 298 kts 123°
2026-05-08 12:32 22.59039 88.13009 10007 ft 295 kts 123°
2026-05-08 12:32 22.57931 88.14890 9487 ft 292 kts 123°
2026-05-08 12:32 22.56854 88.16720 8976 ft 289 kts 123°
2026-05-08 12:32 22.55802 88.18543 8465 ft 287 kts 122°
2026-05-08 12:33 22.54782 88.20377 7953 ft 285 kts 121°
2026-05-08 12:33 22.53776 88.22226 7435 ft 282 kts 121°
2026-05-08 12:33 22.52806 88.24023 6961 ft 279 kts 120°
2026-05-08 12:33 22.51826 88.25843 6519 ft 278 kts 120°
2026-05-08 12:34 22.50805 88.27602 6076 ft 276 kts 128°
2026-05-08 12:34 22.49350 88.28883 5677 ft 275 kts 156°
2026-05-08 12:34 22.47491 88.29265 5296 ft 277 kts 179°
2026-05-08 12:34 22.45593 88.29117 4864 ft 275 kts 186°
2026-05-08 12:35 22.43702 88.28794 4488 ft 274 kts 188°
2026-05-08 12:35 22.41844 88.28538 4135 ft 272 kts 185°
2026-05-08 12:35 22.39975 88.28323 3969 ft 271 kts 185°
2026-05-08 12:35 22.38109 88.28111 3925 ft 266 kts 185°
2026-05-08 12:36 22.36387 88.28284 3903 ft 239 kts 155°
2026-05-08 12:36 22.35166 88.29385 3908 ft 228 kts 119°
2026-05-08 12:36 22.34814 88.31001 3912 ft 225 kts 83°
2026-05-08 12:36 22.35441 88.32533 3917 ft 226 kts 48°
2026-05-08 12:37 22.36522 88.33787 3917 ft 227 kts 47°
2026-05-08 12:37 22.37618 88.35014 3915 ft 226 kts 46°
2026-05-08 12:37 22.38712 88.36234 3915 ft 226 kts 46°
2026-05-08 12:37 22.39806 88.37454 3915 ft 226 kts 46°
2026-05-08 12:38 22.40900 88.38673 3917 ft 226 kts 46°
2026-05-08 12:38 22.41994 88.39893 3915 ft 226 kts 46°
2026-05-08 12:38 22.43088 88.41110 3915 ft 226 kts 46°
2026-05-08 12:38 22.44379 88.42089 3778 ft 228 kts 18°
2026-05-08 12:39 22.45862 88.42438 3592 ft 217 kts 10°
2026-05-08 12:39 22.47316 88.42653 3301 ft 211 kts
2026-05-08 12:39 22.48759 88.42828 3036 ft 204 kts
2026-05-08 12:39 22.50139 88.42987 2786 ft 195 kts
2026-05-08 12:40 22.51458 88.43140 2506 ft 187 kts
2026-05-08 12:40 22.52715 88.43285 2302 ft 174 kts
2026-05-08 12:40 22.53858 88.43418 2038 ft 160 kts
2026-05-08 12:40 22.54931 88.43543 1882 ft 151 kts
2026-05-08 12:41 22.55973 88.43668 1700 ft 151 kts
2026-05-08 12:41 22.56986 88.43784 1428 ft 146 kts
2026-05-08 12:41 22.58004 88.43907 1264 ft 146 kts
2026-05-08 12:41 22.59022 88.44025 1075 ft 146 kts
2026-05-08 12:42 22.60022 88.44140 867 ft 145 kts
2026-05-08 12:42 22.61014 88.44257 686 ft 144 kts
2026-05-08 12:42 22.62017 88.44374 484 ft 144 kts
2026-05-08 12:42 22.63010 88.44478 260 ft 143 kts
2026-05-08 12:43 22.63996 88.44603 97 ft 144 kts
2026-05-08 12:43 22.64938 88.44714 26 ft 123 kts
2026-05-08 12:43 22.65692 88.44806 24 ft 96 kts
2026-05-08 12:43 22.66200 88.44864 23 ft 32 kts